Year,Month,Day,Hour,Minute,Value (Times are PST for barometer in hPa)
2020,11,13,00,00,997.66
2020,11,13,00,01,997.60
2020,11,13,00,02,997.56
2020,11,13,00,03,997.50
2020,11,13,00,04,997.53
2020,11,13,00,05,997.46
2020,11,13,00,06,997.47
2020,11,13,00,07,997.56
2020,11,13,00,08,997.56
2020,11,13,00,09,997.50
2020,11,13,00,10,997.46
2020,11,13,00,11,997.45
2020,11,13,00,12,997.33
2020,11,13,00,13,997.28
2020,11,13,00,14,997.19
2020,11,13,00,15,997.12
2020,11,13,00,16,997.09
2020,11,13,00,17,997.04
2020,11,13,00,18,996.95
2020,11,13,00,19,996.92
2020,11,13,00,20,996.89
2020,11,13,00,21,996.85
2020,11,13,00,22,996.85
2020,11,13,00,23,996.82
2020,11,13,00,24,996.78
2020,11,13,00,25,996.72
2020,11,13,00,26,996.65
2020,11,13,00,27,996.65
2020,11,13,00,28,996.68
2020,11,13,00,29,996.68
2020,11,13,00,30,996.60
2020,11,13,00,31,996.41
2020,11,13,00,32,996.31
2020,11,13,00,33,996.28
2020,11,13,00,34,996.24
2020,11,13,00,35,996.24
2020,11,13,00,36,996.28
2020,11,13,00,37,996.24
2020,11,13,00,38,996.16
2020,11,13,00,39,996.07
2020,11,13,00,40,996.10
2020,11,13,00,41,996.01
2020,11,13,00,42,995.97
2020,11,13,00,43,995.94
2020,11,13,00,44,995.90
2020,11,13,00,45,995.87
2020,11,13,00,46,995.80
2020,11,13,00,47,995.83
2020,11,13,00,48,995.63
2020,11,13,00,49,995.63
2020,11,13,00,50,995.63
2020,11,13,00,51,995.56
2020,11,13,00,52,995.63
2020,11,13,00,53,995.59
2020,11,13,00,54,995.43
2020,11,13,00,55,995.40
2020,11,13,00,56,995.36
2020,11,13,00,57,995.35
2020,11,13,00,58,995.16
2020,11,13,00,59,995.12
2020,11,13,01,00,995.09
2020,11,13,01,01,995.02
2020,11,13,01,02,994.96
2020,11,13,01,03,994.92
2020,11,13,01,04,994.92
2020,11,13,01,05,994.89
2020,11,13,01,06,994.82
2020,11,13,01,07,994.81
2020,11,13,01,08,994.58
2020,11,13,01,09,994.62
2020,11,13,01,10,994.61
2020,11,13,01,11,994.52
2020,11,13,01,12,994.52
2020,11,13,01,13,994.45
2020,11,13,01,14,994.38
2020,11,13,01,15,994.35
2020,11,13,01,16,994.31
2020,11,13,01,17,994.28
2020,11,13,01,18,994.24
2020,11,13,01,19,994.24
2020,11,13,01,20,994.21
2020,11,13,01,21,994.11
2020,11,13,01,22,994.07
2020,11,13,01,23,994.04
2020,11,13,01,24,994.01
2020,11,13,01,25,993.94
2020,11,13,01,26,993.94
2020,11,13,01,27,993.90
2020,11,13,01,28,993.80
2020,11,13,01,29,993.80
2020,11,13,01,30,993.74
2020,11,13,01,31,993.67
2020,11,13,01,32,993.60
2020,11,13,01,33,993.53
2020,11,13,01,34,993.53
2020,11,13,01,35,993.50
2020,11,13,01,36,993.53
2020,11,13,01,37,993.50
2020,11,13,01,38,993.47
2020,11,13,01,39,993.47
2020,11,13,01,40,993.40
2020,11,13,01,41,993.33
2020,11,13,01,42,993.26
2020,11,13,01,43,993.26
2020,11,13,01,44,993.23
2020,11,13,01,45,993.19
2020,11,13,01,46,993.16
2020,11,13,01,47,993.16
2020,11,13,01,48,993.09
2020,11,13,01,49,992.99
2020,11,13,01,50,992.96
2020,11,13,01,51,992.85
2020,11,13,01,52,992.72
2020,11,13,01,53,992.65
2020,11,13,01,54,992.62
2020,11,13,01,55,992.62
2020,11,13,01,56,992.62
2020,11,13,01,57,992.58
2020,11,13,01,58,992.54
2020,11,13,01,59,992.45
2020,11,13,02,00,992.35
2020,11,13,02,01,992.38
2020,11,13,02,02,992.31
2020,11,13,02,03,992.30
2020,11,13,02,04,992.20
2020,11,13,02,05,992.04
2020,11,13,02,06,992.04
2020,11,13,02,07,992.01
2020,11,13,02,08,991.98
2020,11,13,02,09,991.97
2020,11,13,02,10,991.81
2020,11,13,02,11,991.74
2020,11,13,02,12,991.67
2020,11,13,02,13,991.64
2020,11,13,02,14,991.67
2020,11,13,02,15,991.60
2020,11,13,02,16,991.57
2020,11,13,02,17,991.53
2020,11,13,02,18,991.57
2020,11,13,02,19,991.53
2020,11,13,02,20,991.50
2020,11,13,02,21,991.50
2020,11,13,02,22,991.47
2020,11,13,02,23,991.43
2020,11,13,02,24,991.49
2020,11,13,02,25,991.40
2020,11,13,02,26,991.37
2020,11,13,02,27,991.37
2020,11,13,02,28,991.33
2020,11,13,02,29,991.33
2020,11,13,02,30,991.33
2020,11,13,02,31,991.33
2020,11,13,02,32,991.33
2020,11,13,02,33,991.33
2020,11,13,02,34,991.30
2020,11,13,02,35,991.30
2020,11,13,02,36,991.26
2020,11,13,02,37,991.23
2020,11,13,02,38,991.23
2020,11,13,02,39,991.20
2020,11,13,02,40,991.12
2020,11,13,02,41,990.99
2020,11,13,02,42,990.99
2020,11,13,02,43,990.98
2020,11,13,02,44,990.86
2020,11,13,02,45,990.89
2020,11,13,02,46,990.82
2020,11,13,02,47,990.72
2020,11,13,02,48,990.72
2020,11,13,02,49,990.65
2020,11,13,02,50,990.65
2020,11,13,02,51,990.65
2020,11,13,02,52,990.65
2020,11,13,02,53,990.65
2020,11,13,02,54,990.59
2020,11,13,02,55,990.55
2020,11,13,02,56,990.48
2020,11,13,02,57,990.35
2020,11,13,02,58,990.21
2020,11,13,02,59,990.21
2020,11,13,03,00,990.25
2020,11,13,03,01,990.15
2020,11,13,03,02,990.08
2020,11,13,03,03,990.01
2020,11,13,03,04,989.94
2020,11,13,03,05,989.94
2020,11,13,03,06,989.93
2020,11,13,03,07,989.84
2020,11,13,03,08,989.84
2020,11,13,03,09,989.84
2020,11,13,03,10,989.81
2020,11,13,03,11,989.77
2020,11,13,03,12,989.77
2020,11,13,03,13,989.77
2020,11,13,03,14,989.71
2020,11,13,03,15,989.74
2020,11,13,03,16,989.67
2020,11,13,03,17,989.64
2020,11,13,03,18,989.57
2020,11,13,03,19,989.50
2020,11,13,03,20,989.44
2020,11,13,03,21,989.49
2020,11,13,03,22,989.37
2020,11,13,03,23,989.33
2020,11,13,03,24,989.33
2020,11,13,03,25,989.30
2020,11,13,03,26,989.27
2020,11,13,03,27,989.27
2020,11,13,03,28,989.16
2020,11,13,03,29,989.16
2020,11,13,03,30,989.16
2020,11,13,03,31,989.06
2020,11,13,03,32,989.03
2020,11,13,03,33,989.00
2020,11,13,03,34,989.00
2020,11,13,03,35,989.03
2020,11,13,03,36,989.00
2020,11,13,03,37,988.93
2020,11,13,03,38,988.93
2020,11,13,03,39,988.89
2020,11,13,03,40,988.89
2020,11,13,03,41,988.89
2020,11,13,03,42,988.86
2020,11,13,03,43,988.76
2020,11,13,03,44,988.72
2020,11,13,03,45,988.69
2020,11,13,03,46,988.59
2020,11,13,03,47,988.62
2020,11,13,03,48,988.55
2020,11,13,03,49,988.49
2020,11,13,03,50,988.49
2020,11,13,03,51,988.45
2020,11,13,03,52,988.45
2020,11,13,03,53,988.45
2020,11,13,03,54,988.45
2020,11,13,03,55,988.41
2020,11,13,03,56,988.32
2020,11,13,03,57,988.32
2020,11,13,03,58,988.22
2020,11,13,03,59,988.08
2020,11,13,04,00,988.01
2020,11,13,04,01,988.01
2020,11,13,04,02,988.01
2020,11,13,04,03,988.01
2020,11,13,04,04,987.91
2020,11,13,04,05,987.95
2020,11,13,04,06,987.84
2020,11,13,04,07,987.78
2020,11,13,04,08,987.71
2020,11,13,04,09,987.74
2020,11,13,04,10,987.71
2020,11,13,04,11,987.67
2020,11,13,04,12,987.64
2020,11,13,04,13,987.64
2020,11,13,04,14,987.61
2020,11,13,04,15,987.61
2020,11,13,04,16,987.57
2020,11,13,04,17,987.57
2020,11,13,04,18,987.54
2020,11,13,04,19,987.51
2020,11,13,04,20,987.57
2020,11,13,04,21,987.54
2020,11,13,04,22,987.57
2020,11,13,04,23,987.64
2020,11,13,04,24,987.64
2020,11,13,04,25,987.64
2020,11,13,04,26,987.61
2020,11,13,04,27,987.61
2020,11,13,04,28,987.64
2020,11,13,04,29,987.67
2020,11,13,04,30,987.74
2020,11,13,04,31,987.71
2020,11,13,04,32,987.64
2020,11,13,04,33,987.61
2020,11,13,04,34,987.64
2020,11,13,04,35,987.67
2020,11,13,04,36,987.67
2020,11,13,04,37,987.64
2020,11,13,04,38,987.64
2020,11,13,04,39,987.57
2020,11,13,04,40,987.54
2020,11,13,04,41,987.65
2020,11,13,04,42,987.74
2020,11,13,04,43,987.81
2020,11,13,04,44,987.67
2020,11,13,04,45,987.58
2020,11,13,04,46,987.71
2020,11,13,04,47,987.57
2020,11,13,04,48,987.64
2020,11,13,04,49,987.66
2020,11,13,04,50,987.57
2020,11,13,04,51,987.57
2020,11,13,04,52,987.64
2020,11,13,04,53,987.61
2020,11,13,04,54,987.61
2020,11,13,04,55,987.64
2020,11,13,04,56,987.67
2020,11,13,04,57,987.64
2020,11,13,04,58,987.61
2020,11,13,04,59,987.61
2020,11,13,05,00,987.64
2020,11,13,05,01,987.64
2020,11,13,05,02,987.57
2020,11,13,05,03,987.57
2020,11,13,05,04,987.57
2020,11,13,05,05,987.54
2020,11,13,05,06,987.54
2020,11,13,05,07,987.57
2020,11,13,05,08,987.54
2020,11,13,05,09,987.61
2020,11,13,05,10,987.67
2020,11,13,05,11,987.74
2020,11,13,05,12,987.81
2020,11,13,05,13,987.81
2020,11,13,05,14,987.78
2020,11,13,05,15,987.84
2020,11,13,05,16,987.81
2020,11,13,05,17,987.84
2020,11,13,05,18,987.88
2020,11,13,05,19,988.01
2020,11,13,05,20,987.95
2020,11,13,05,21,987.91
2020,11,13,05,22,987.78
2020,11,13,05,23,987.71
2020,11,13,05,24,987.64
2020,11,13,05,25,987.65
2020,11,13,05,26,987.78
2020,11,13,05,27,987.71
2020,11,13,05,28,987.71
2020,11,13,05,29,987.74
2020,11,13,05,30,987.71
2020,11,13,05,31,987.64
2020,11,13,05,32,987.64
2020,11,13,05,33,987.61
2020,11,13,05,34,987.57
2020,11,13,05,35,987.51
2020,11,13,05,36,987.40
2020,11,13,05,37,987.20
2020,11,13,05,38,987.10
2020,11,13,05,39,987.03
2020,11,13,05,40,986.99
2020,11,13,05,41,986.85
2020,11,13,05,42,986.73
2020,11,13,05,43,986.76
2020,11,13,05,44,986.73
2020,11,13,05,45,986.76
2020,11,13,05,46,986.73
2020,11,13,05,47,986.79
2020,11,13,05,48,986.83
2020,11,13,05,49,986.83
2020,11,13,05,50,986.79
2020,11,13,05,51,986.76
2020,11,13,05,52,986.83
2020,11,13,05,53,986.84
2020,11,13,05,54,986.96
2020,11,13,05,55,987.00
2020,11,13,05,56,987.10
2020,11,13,05,57,987.06
2020,11,13,05,58,987.00
2020,11,13,05,59,986.96
2020,11,13,06,00,986.86
2020,11,13,06,01,986.93
2020,11,13,06,02,987.06
2020,11,13,06,03,987.03
2020,11,13,06,04,987.03
2020,11,13,06,05,987.00
2020,11,13,06,06,987.00
2020,11,13,06,07,986.96
2020,11,13,06,08,986.96
2020,11,13,06,09,986.93
2020,11,13,06,10,986.96
2020,11,13,06,11,986.93
2020,11,13,06,12,987.00
2020,11,13,06,13,987.10
2020,11,13,06,14,987.13
2020,11,13,06,15,987.06
2020,11,13,06,16,987.03
2020,11,13,06,17,987.10
2020,11,13,06,18,987.05
2020,11,13,06,19,986.96
2020,11,13,06,20,986.86
2020,11,13,06,21,986.86
2020,11,13,06,22,986.93
2020,11,13,06,23,986.93
2020,11,13,06,24,987.00
2020,11,13,06,25,987.00
2020,11,13,06,26,987.00
2020,11,13,06,27,986.96
2020,11,13,06,28,987.00
2020,11,13,06,29,986.93
2020,11,13,06,30,986.96
2020,11,13,06,31,986.93
2020,11,13,06,32,986.93
2020,11,13,06,33,987.00
2020,11,13,06,34,987.06
2020,11,13,06,35,987.20
2020,11,13,06,36,987.17
2020,11,13,06,37,987.20
2020,11,13,06,38,987.17
2020,11,13,06,39,987.13
2020,11,13,06,40,987.17
2020,11,13,06,41,987.27
2020,11,13,06,42,987.17
2020,11,13,06,43,987.20
2020,11,13,06,44,987.17
2020,11,13,06,45,987.27
2020,11,13,06,46,987.27
2020,11,13,06,47,987.30
2020,11,13,06,48,987.27
2020,11,13,06,49,987.30
2020,11,13,06,50,987.17
2020,11,13,06,51,987.20
2020,11,13,06,52,987.17
2020,11,13,06,53,987.20
2020,11,13,06,54,987.27
2020,11,13,06,55,987.34
2020,11,13,06,56,987.20
2020,11,13,06,57,987.20
2020,11,13,06,58,987.17
2020,11,13,06,59,987.17
2020,11,13,07,00,987.20
2020,11,13,07,01,987.17
2020,11,13,07,02,987.17
2020,11,13,07,03,987.10
2020,11,13,07,04,987.13
2020,11,13,07,05,987.06
2020,11,13,07,06,987.10
2020,11,13,07,07,987.10
2020,11,13,07,08,987.14
2020,11,13,07,09,987.30
2020,11,13,07,10,987.17
2020,11,13,07,11,987.03
2020,11,13,07,12,986.96
2020,11,13,07,13,987.00
2020,11,13,07,14,987.10
2020,11,13,07,15,987.03
2020,11,13,07,16,987.17
2020,11,13,07,17,987.24
2020,11,13,07,18,987.40
2020,11,13,07,19,987.34
2020,11,13,07,20,987.34
2020,11,13,07,21,987.40
2020,11,13,07,22,987.47
2020,11,13,07,23,987.40
2020,11,13,07,24,987.51
2020,11,13,07,25,987.57
2020,11,13,07,26,987.61
2020,11,13,07,27,987.64
2020,11,13,07,28,987.61
2020,11,13,07,29,987.61
2020,11,13,07,30,987.57
2020,11,13,07,31,987.57
2020,11,13,07,32,987.61
2020,11,13,07,33,987.57
2020,11,13,07,34,987.61
2020,11,13,07,35,987.67
2020,11,13,07,36,987.65
2020,11,13,07,37,987.74
2020,11,13,07,38,987.81
2020,11,13,07,39,987.71
2020,11,13,07,40,987.71
2020,11,13,07,41,987.72
2020,11,13,07,42,987.88
2020,11,13,07,43,987.98
2020,11,13,07,44,987.91
2020,11,13,07,45,987.98
2020,11,13,07,46,987.95
2020,11,13,07,47,987.98
2020,11,13,07,48,987.98
2020,11,13,07,49,987.95
2020,11,13,07,50,987.91
2020,11,13,07,51,987.95
2020,11,13,07,52,987.95
2020,11,13,07,53,987.95
2020,11,13,07,54,987.95
2020,11,13,07,55,987.98
2020,11,13,07,56,987.95
2020,11,13,07,57,987.91
2020,11,13,07,58,987.95
2020,11,13,07,59,987.98
2020,11,13,08,00,987.98
2020,11,13,08,01,987.91
2020,11,13,08,02,987.95
2020,11,13,08,03,988.01
2020,11,13,08,04,987.98
2020,11,13,08,05,988.01
2020,11,13,08,06,987.98
2020,11,13,08,07,987.98
2020,11,13,08,08,988.10
2020,11,13,08,09,988.01
2020,11,13,08,10,987.98
2020,11,13,08,11,988.01
2020,11,13,08,12,987.95
2020,11,13,08,13,987.98
2020,11,13,08,14,987.91
2020,11,13,08,15,987.95
2020,11,13,08,16,987.98
2020,11,13,08,17,988.01
2020,11,13,08,18,988.05
2020,11,13,08,19,988.02
2020,11,13,08,20,988.11
2020,11,13,08,21,988.15
2020,11,13,08,22,988.18
2020,11,13,08,23,988.25
2020,11,13,08,24,988.28
2020,11,13,08,25,988.25
2020,11,13,08,26,988.25
2020,11,13,08,27,988.18
2020,11,13,08,28,988.18
2020,11,13,08,29,988.15
2020,11,13,08,30,988.08
2020,11,13,08,31,988.15
2020,11,13,08,32,988.22
2020,11,13,08,33,988.25
2020,11,13,08,34,988.11
2020,11,13,08,35,988.15
2020,11,13,08,36,988.11
2020,11,13,08,37,988.11
2020,11,13,08,38,988.25
2020,11,13,08,39,988.18
2020,11,13,08,40,988.35
2020,11,13,08,41,988.28
2020,11,13,08,42,988.25
2020,11,13,08,43,988.39
2020,11,13,08,44,988.39
2020,11,13,08,45,988.32
2020,11,13,08,46,988.28
2020,11,13,08,47,988.49
2020,11,13,08,48,988.49
2020,11,13,08,49,988.45
2020,11,13,08,50,988.42
2020,11,13,08,51,988.39
2020,11,13,08,52,988.42
2020,11,13,08,53,988.39
2020,11,13,08,54,988.35
2020,11,13,08,55,988.39
2020,11,13,08,56,988.39
2020,11,13,08,57,988.32
2020,11,13,08,58,988.32
2020,11,13,08,59,988.32
2020,11,13,09,00,988.28
2020,11,13,09,01,988.28
2020,11,13,09,02,988.25
2020,11,13,09,03,988.25
2020,11,13,09,04,988.25
2020,11,13,09,05,988.22
2020,11,13,09,06,988.25
2020,11,13,09,07,988.25
2020,11,13,09,08,988.25
2020,11,13,09,09,988.39
2020,11,13,09,10,988.18
2020,11,13,09,11,988.25
2020,11,13,09,12,988.34
2020,11,13,09,13,988.25
2020,11,13,09,14,988.35
2020,11,13,09,15,988.32
2020,11,13,09,16,988.18
2020,11,13,09,17,988.22
2020,11,13,09,18,988.32
2020,11,13,09,19,988.28
2020,11,13,09,20,988.22
2020,11,13,09,21,988.22
2020,11,13,09,22,988.28
2020,11,13,09,23,988.29
2020,11,13,09,24,988.49
2020,11,13,09,25,988.35
2020,11,13,09,26,988.52
2020,11,13,09,27,988.62
2020,11,13,09,28,988.59
2020,11,13,09,29,988.62
2020,11,13,09,30,988.69
2020,11,13,09,31,988.66
2020,11,13,09,32,988.66
2020,11,13,09,33,988.62
2020,11,13,09,34,988.66
2020,11,13,09,35,988.89
2020,11,13,09,36,988.86
2020,11,13,09,37,988.89
2020,11,13,09,38,989.00
2020,11,13,09,39,989.06
2020,11,13,09,40,989.16
2020,11,13,09,41,989.13
2020,11,13,09,42,989.10
2020,11,13,09,43,989.13
2020,11,13,09,44,989.20
2020,11,13,09,45,989.20
2020,11,13,09,46,989.13
2020,11,13,09,47,989.16
2020,11,13,09,48,989.33
2020,11,13,09,49,989.16
2020,11,13,09,50,989.27
2020,11,13,09,51,989.16
2020,11,13,09,52,989.27
2020,11,13,09,53,989.30
2020,11,13,09,54,989.33
2020,11,13,09,55,989.28
2020,11,13,09,56,989.37
2020,11,13,09,57,989.30
2020,11,13,09,58,989.37
2020,11,13,09,59,989.38
2020,11,13,10,00,989.54
2020,11,13,10,01,989.33
2020,11,13,10,02,989.41
2020,11,13,10,03,989.50
2020,11,13,10,04,989.64
2020,11,13,10,05,989.47
2020,11,13,10,06,989.57
2020,11,13,10,07,989.60
2020,11,13,10,08,989.57
2020,11,13,10,09,989.54
2020,11,13,10,10,989.60
2020,11,13,10,11,989.67
2020,11,13,10,12,989.71
2020,11,13,10,13,989.77
2020,11,13,10,14,989.81
2020,11,13,10,15,989.88
2020,11,13,10,16,990.17
2020,11,13,10,17,989.94
2020,11,13,10,18,989.81
2020,11,13,10,19,990.01
2020,11,13,10,20,989.91
2020,11,13,10,21,990.11
2020,11,13,10,22,989.94
2020,11,13,10,23,990.17
2020,11,13,10,24,990.08
2020,11,13,10,25,990.15
2020,11,13,10,26,990.35
2020,11,13,10,27,990.32
2020,11,13,10,28,990.15
2020,11,13,10,29,990.21
2020,11,13,10,30,990.25
2020,11,13,10,31,990.32
2020,11,13,10,32,990.45
2020,11,13,10,33,990.35
2020,11,13,10,34,990.35
2020,11,13,10,35,990.49
2020,11,13,10,36,990.60
2020,11,13,10,37,990.72
2020,11,13,10,38,990.82
2020,11,13,10,39,990.76
2020,11,13,10,40,990.96
2020,11,13,10,41,990.79
2020,11,13,10,42,990.86
2020,11,13,10,43,991.06
2020,11,13,10,44,990.99
2020,11,13,10,45,991.03
2020,11,13,10,46,991.03
2020,11,13,10,47,991.03
2020,11,13,10,48,991.16
2020,11,13,10,49,991.26
2020,11,13,10,50,991.33
2020,11,13,10,51,991.24
2020,11,13,10,52,991.43
2020,11,13,10,53,991.33
2020,11,13,10,54,991.41
2020,11,13,10,55,991.67
2020,11,13,10,56,991.67
2020,11,13,10,57,991.67
2020,11,13,10,58,991.77
2020,11,13,10,59,991.76
2020,11,13,11,00,991.64
2020,11,13,11,01,991.87
2020,11,13,11,02,991.84
2020,11,13,11,03,991.91
2020,11,13,11,04,991.94
2020,11,13,11,05,992.11
2020,11,13,11,06,992.04
2020,11,13,11,07,991.88
2020,11,13,11,08,992.04
2020,11,13,11,09,992.21
2020,11,13,11,10,992.12
2020,11,13,11,11,992.35
2020,11,13,11,12,992.31
2020,11,13,11,13,992.22
2020,11,13,11,14,992.38
2020,11,13,11,15,992.45
2020,11,13,11,16,992.43
2020,11,13,11,17,992.58
2020,11,13,11,18,992.58
2020,11,13,11,19,992.58
2020,11,13,11,20,992.55
2020,11,13,11,21,992.59
2020,11,13,11,22,992.69
2020,11,13,11,23,992.69
2020,11,13,11,24,992.56
2020,11,13,11,25,992.78
2020,11,13,11,26,992.69
2020,11,13,11,27,992.72
2020,11,13,11,28,992.79
2020,11,13,11,29,992.75
2020,11,13,11,30,992.75
2020,11,13,11,31,992.79
2020,11,13,11,32,992.82
2020,11,13,11,33,992.82
2020,11,13,11,34,992.79
2020,11,13,11,35,992.89
2020,11,13,11,36,992.82
2020,11,13,11,37,992.92
2020,11,13,11,38,992.99
2020,11,13,11,39,992.92
2020,11,13,11,40,992.96
2020,11,13,11,41,992.92
2020,11,13,11,42,992.99
2020,11,13,11,43,992.99
2020,11,13,11,44,993.03
2020,11,13,11,45,993.03
2020,11,13,11,46,992.99
2020,11,13,11,47,993.13
2020,11,13,11,48,993.09
2020,11,13,11,49,993.06
2020,11,13,11,50,993.06
2020,11,13,11,51,993.13
2020,11,13,11,52,992.99
2020,11,13,11,53,993.09
2020,11,13,11,54,993.09
2020,11,13,11,55,993.06
2020,11,13,11,56,993.13
2020,11,13,11,57,993.19
2020,11,13,11,58,993.13
2020,11,13,11,59,993.16
2020,11,13,12,00,993.19
2020,11,13,12,01,993.13
2020,11,13,12,02,993.19
2020,11,13,12,03,993.19
2020,11,13,12,04,993.26
2020,11,13,12,05,993.33
2020,11,13,12,06,993.30
2020,11,13,12,07,993.30
2020,11,13,12,08,993.36
2020,11,13,12,09,993.26
2020,11,13,12,10,993.33
2020,11,13,12,11,993.30
2020,11,13,12,12,993.40
2020,11,13,12,13,993.40
2020,11,13,12,14,993.43
2020,11,13,12,15,993.50
2020,11,13,12,16,993.50
2020,11,13,12,17,993.47
2020,11,13,12,18,993.57
2020,11,13,12,19,993.53
2020,11,13,12,20,993.57
2020,11,13,12,21,993.60
2020,11,13,12,22,993.70
2020,11,13,12,23,993.77
2020,11,13,12,24,993.87
2020,11,13,12,25,993.87
2020,11,13,12,26,993.94
2020,11,13,12,27,993.91
2020,11,13,12,28,993.94
2020,11,13,12,29,994.07
2020,11,13,12,30,993.94
2020,11,13,12,31,994.04
2020,11,13,12,32,994.11
2020,11,13,12,33,994.14
2020,11,13,12,34,994.21
2020,11,13,12,35,994.07
2020,11,13,12,36,994.07
2020,11,13,12,37,994.18
2020,11,13,12,38,994.18
2020,11,13,12,39,994.21
2020,11,13,12,40,994.28
2020,11,13,12,41,994.24
2020,11,13,12,42,994.35
2020,11,13,12,43,994.38
2020,11,13,12,44,994.58
2020,11,13,12,45,994.48
2020,11,13,12,46,994.52
2020,11,13,12,47,994.45
2020,11,13,12,48,994.55
2020,11,13,12,49,994.48
2020,11,13,12,50,994.45
2020,11,13,12,51,994.65
2020,11,13,12,52,994.62
2020,11,13,12,53,994.52
2020,11,13,12,54,994.68
2020,11,13,12,55,994.79
2020,11,13,12,56,994.65
2020,11,13,12,57,994.59
2020,11,13,12,58,994.79
2020,11,13,12,59,994.68
2020,11,13,13,00,994.82
2020,11,13,13,01,994.72
2020,11,13,13,02,994.75
2020,11,13,13,03,994.76
2020,11,13,13,04,994.85
2020,11,13,13,05,994.92
2020,11,13,13,06,994.93
2020,11,13,13,07,995.06
2020,11,13,13,08,995.02
2020,11,13,13,09,995.02
2020,11,13,13,10,995.09
2020,11,13,13,11,995.06
2020,11,13,13,12,995.09
2020,11,13,13,13,995.12
2020,11,13,13,14,995.23
2020,11,13,13,15,995.23
2020,11,13,13,16,995.23
2020,11,13,13,17,995.23
2020,11,13,13,18,995.26
2020,11,13,13,19,995.26
2020,11,13,13,20,995.29
2020,11,13,13,21,995.36
2020,11,13,13,22,995.50
2020,11,13,13,23,995.46
2020,11,13,13,24,995.43
2020,11,13,13,25,995.56
2020,11,13,13,26,995.53
2020,11,13,13,27,995.63
2020,11,13,13,28,995.56
2020,11,13,13,29,995.67
2020,11,13,13,30,995.63
2020,11,13,13,31,995.70
2020,11,13,13,32,995.50
2020,11,13,13,33,995.56
2020,11,13,13,34,995.56
2020,11,13,13,35,995.67
2020,11,13,13,36,995.73
2020,11,13,13,37,995.73
2020,11,13,13,38,995.77
2020,11,13,13,39,995.77
2020,11,13,13,40,995.80
2020,11,13,13,41,995.90
2020,11,13,13,42,995.79
2020,11,13,13,43,996.11
2020,11,13,13,44,996.01
2020,11,13,13,45,996.07
2020,11,13,13,46,996.17
2020,11,13,13,47,996.28
2020,11,13,13,48,996.34
2020,11,13,13,49,996.24
2020,11,13,13,50,996.24
2020,11,13,13,51,996.28
2020,11,13,13,52,996.24
2020,11,13,13,53,996.28
2020,11,13,13,54,996.31
2020,11,13,13,55,996.38
2020,11,13,13,56,996.38
2020,11,13,13,57,996.45
2020,11,13,13,58,996.41
2020,11,13,13,59,996.46
2020,11,13,14,00,996.68
2020,11,13,14,01,996.38
2020,11,13,14,02,996.38
2020,11,13,14,03,996.51
2020,11,13,14,04,996.55
2020,11,13,14,05,996.78
2020,11,13,14,06,996.68
2020,11,13,14,07,996.84
2020,11,13,14,08,996.58
2020,11,13,14,09,996.68
2020,11,13,14,10,996.68
2020,11,13,14,11,996.82
2020,11,13,14,12,996.69
2020,11,13,14,13,996.82
2020,11,13,14,14,996.76
2020,11,13,14,15,996.89
2020,11,13,14,16,996.89
2020,11,13,14,17,996.89
2020,11,13,14,18,996.89
2020,11,13,14,19,996.95
2020,11,13,14,20,996.95
2020,11,13,14,21,996.99
2020,11,13,14,22,997.00
2020,11,13,14,23,997.12
2020,11,13,14,24,997.16
2020,11,13,14,25,997.20
2020,11,13,14,26,997.29
2020,11,13,14,27,997.36
2020,11,13,14,28,997.39
2020,11,13,14,29,997.46
2020,11,13,14,30,997.46
2020,11,13,14,31,997.46
2020,11,13,14,32,997.46
2020,11,13,14,33,997.50
2020,11,13,14,34,997.60
2020,11,13,14,35,997.56
2020,11,13,14,36,997.50
2020,11,13,14,37,997.66
2020,11,13,14,38,997.53
2020,11,13,14,39,997.70
2020,11,13,14,40,997.61
2020,11,13,14,41,997.77
2020,11,13,14,42,997.66
2020,11,13,14,43,997.86
2020,11,13,14,44,997.87
2020,11,13,14,45,997.83
2020,11,13,14,46,997.89
2020,11,13,14,47,997.83
2020,11,13,14,48,997.90
2020,11,13,14,49,997.99
2020,11,13,14,50,997.97
2020,11,13,14,51,998.00
2020,11,13,14,52,998.07
2020,11,13,14,53,998.07
2020,11,13,14,54,998.07
2020,11,13,14,55,998.07
2020,11,13,14,56,998.14
2020,11,13,14,57,998.14
2020,11,13,14,58,998.21
2020,11,13,14,59,998.17
2020,11,13,15,00,998.21
2020,11,13,15,01,998.27
2020,11,13,15,02,998.41
2020,11,13,15,03,998.38
2020,11,13,15,04,998.41
2020,11,13,15,05,998.38
2020,11,13,15,06,998.51
2020,11,13,15,07,998.44
2020,11,13,15,08,998.44
2020,11,13,15,09,998.44
2020,11,13,15,10,998.44
2020,11,13,15,11,998.51
2020,11,13,15,12,998.44
2020,11,13,15,13,998.51
2020,11,13,15,14,998.51
2020,11,13,15,15,998.54
2020,11,13,15,16,998.51
2020,11,13,15,17,998.58
2020,11,13,15,18,998.61
2020,11,13,15,19,998.65
2020,11,13,15,20,998.61
2020,11,13,15,21,998.75
2020,11,13,15,22,998.68
2020,11,13,15,23,998.61
2020,11,13,15,24,998.68
2020,11,13,15,25,998.78
2020,11,13,15,26,998.78
2020,11,13,15,27,998.58
2020,11,13,15,28,998.68
2020,11,13,15,29,998.75
2020,11,13,15,30,998.75
2020,11,13,15,31,998.82
2020,11,13,15,32,998.78
2020,11,13,15,33,998.92
2020,11,13,15,34,998.92
2020,11,13,15,35,999.02
2020,11,13,15,36,999.05
2020,11,13,15,37,999.05
2020,11,13,15,38,999.05
2020,11,13,15,39,999.02
2020,11,13,15,40,999.12
2020,11,13,15,41,999.19
2020,11,13,15,42,999.19
2020,11,13,15,43,999.19
2020,11,13,15,44,999.22
2020,11,13,15,45,999.36
2020,11,13,15,46,999.46
2020,11,13,15,47,999.39
2020,11,13,15,48,999.46
2020,11,13,15,49,999.37
2020,11,13,15,50,999.53
2020,11,13,15,51,999.53
2020,11,13,15,52,999.53
2020,11,13,15,53,999.56
2020,11,13,15,54,999.63
2020,11,13,15,55,999.53
2020,11,13,15,56,999.49
2020,11,13,15,57,999.53
2020,11,13,15,58,999.49
2020,11,13,15,59,999.53
2020,11,13,16,00,999.56
2020,11,13,16,01,999.69
2020,11,13,16,02,999.63
2020,11,13,16,03,999.63
2020,11,13,16,04,999.73
2020,11,13,16,05,999.73
2020,11,13,16,06,999.83
2020,11,13,16,07,999.90
2020,11,13,16,08,999.93
2020,11,13,16,09,1000.00
2020,11,13,16,10,999.97
2020,11,13,16,11,999.93
2020,11,13,16,12,1000.00
2020,11,13,16,13,999.93
2020,11,13,16,14,1000.03
2020,11,13,16,15,1000.07
2020,11,13,16,16,1000.10
2020,11,13,16,17,1000.03
2020,11,13,16,18,1000.07
2020,11,13,16,19,1000.14
2020,11,13,16,20,1000.24
2020,11,13,16,21,1000.27
2020,11,13,16,22,1000.24
2020,11,13,16,23,1000.24
2020,11,13,16,24,1000.31
2020,11,13,16,25,1000.44
2020,11,13,16,26,1000.34
2020,11,13,16,27,1000.54
2020,11,13,16,28,1000.61
2020,11,13,16,29,1000.54
2020,11,13,16,30,1000.68
2020,11,13,16,31,1000.64
2020,11,13,16,32,1000.65
2020,11,13,16,33,1000.75
2020,11,13,16,34,1000.58
2020,11,13,16,35,1000.71